Location: Équennes
(49.7375°N, 1.9622°E)
Time: 23:49:05
(UTC+00:00)

Cosmos 1656 - Pass Details

Date: 04 October 2023
Orbit: 797 x 849 km, 71.1° (Epoch: 03 December)

Event Time Altitude Azimuth Distance (km) Brightness Sun altitude
Rises 20:37:23 0° 335° (NNW) 3,316 7.6 -30.6°
Reaches altitude 10° 20:40:21 10° 350° (N) 2,387 6.5 -31.0°
Enters shadow 20:43:14 20° 21° (NNE) 1,772 5.5 -31.3°
